Terminal Aerodrome Forecast
Issued by NWS Pueblo, CO

Home | Current Version | Previous Version | Text Only | Print | Product List | Glossary On
Versions: 1 2 3 4 5 6 7 8 9 10 11 12 13 14 15 16 17 18 19 20 21 22 23 24 25 26 27 28 29 30 31 32 33 34 35 36 37 38 39 40 41 42 43 44 45
000
FTUS45 KPUB 311720
TAFCOS
TAF
KCOS 311720Z 3118/0118 16006KT P6SM BKN015 OVC030
     FM312000 15009KT P6SM VCTS SCT035CB BKN060
     FM010200 18008KT P6SM BKN035 OVC100
     FM011600 14006KT P6SM SCT040=

USA.gov is the U.S. government's official web portal to all federal, state and local government web resources and services.